カタログに戻る

ONEWEB-0017

運用中通信PO
NORAD 45132·PAYLOAD·🇬🇧 United Kingdom

打ち上げ Feb 6, 2020 から Baikonur Cosmodrome

Loading…

次のパス (今後24時間)

TLE

最新Source: CelesTrak SupGP

元期: Sep 14, 2026, 21:30 UTC

1 45132C 20008B   26257.89634676 -.00000154  00000+0 -44036-3 0  2574
2 45132  87.8904  18.4065 0001588 101.7584  10.5784 13.10371437    11

AllMySatでONEWEB-0017をリアルタイム追跡

Download on the App Store